| time (UTC) | temp F | wind direction | speed MPH | gust MPH | rain 1hr in | rain 24hr in | rain mn in | humidity % | barometer mb |
| 20260510151511 | 72 | 324 | 4.0 | 6.0 | 0.00 | 0.00 | 0.00 | 52 | 1017.1 |
| 20260510151010 | 71 | 259 | 3.0 | 9.0 | 0.00 | 0.00 | 0.00 | 53 | 1017.0 |
| 20260510150510 | 72 | 287 | 5.0 | 9.0 | 0.00 | 0.00 | 0.00 | 51 | 1017.0 |
| 20260510150010 | 71 | 311 | 2.0 | 7.0 | 0.00 | 0.00 | 0.00 | 53 | 1016.9 |
| 20260510145509 | 71 | 326 | 4.0 | 8.0 | 0.00 | 0.00 | 0.00 | 52 | 1017.1 |
| 20260510145009 | 71 | 301 | 4.0 | 8.0 | 0.00 | 0.00 | 0.00 | 52 | 1017.0 |
| 20260510144509 | 70 | 230 | 5.0 | 8.0 | 0.00 | 0.00 | 0.00 | 53 | 1017.0 |
| 20260510144008 | 70 | 240 | 3.0 | 5.0 | 0.00 | 0.00 | 0.00 | 55 | 1016.9 |
| 20260510143508 | 69 | 290 | 3.0 | 5.0 | 0.00 | 0.00 | 0.00 | 55 | 1017.0 |
| 20260510143007 | 69 | 284 | 4.0 | 7.0 | 0.00 | 0.00 | 0.00 | 55 | 1016.9 |
| 20260510142507 | 69 | 318 | 4.0 | 6.0 | 0.00 | 0.00 | 0.00 | 58 | 1017.0 |
| 20260510142007 | 69 | 246 | 2.0 | 5.0 | 0.00 | 0.00 | 0.00 | 57 | 1017.0 |
| 20260510141506 | 69 | 262 | 4.0 | 5.0 | 0.00 | 0.00 | 0.00 | 58 | 1017.1 |
| 20260510141006 | 69 | 277 | 4.0 | 5.0 | 0.00 | 0.00 | 0.00 | 58 | 1017.0 |
| 20260510140505 | 68 | 234 | 4.0 | 9.0 | 0.00 | 0.00 | 0.00 | 58 | 1017.0 |
| 20260510140005 | 68 | 270 | 3.0 | 5.0 | 0.00 | 0.00 | 0.00 | 58 | 1017.0 |
| 20260510135504 | 68 | 236 | 3.0 | 5.0 | 0.00 | 0.00 | 0.00 | 58 | 1017.0 |
| 20260510135004 | 67 | 240 | 2.0 | 4.0 | 0.00 | 0.00 | 0.00 | 58 | 1016.9 |
| 20260510134504 | 67 | 262 | 4.0 | 5.0 | 0.00 | 0.00 | 0.00 | 59 | 1017.0 |
| 20260510134003 | 67 | 298 | 2.0 | 3.0 | 0.00 | 0.00 | 0.00 | 59 | 1017.0 |
| 20260510133503 | 67 | 281 | 4.0 | 7.0 | 0.00 | 0.00 | 0.00 | 58 | 1017.2 |
| 20260510133003 | 67 | 243 | 4.0 | 7.0 | 0.00 | 0.00 | 0.00 | 60 | 1017.0 |
| 20260510132502 | 66 | 230 | 2.0 | 5.0 | 0.00 | 0.00 | 0.00 | 62 | 1016.9 |
| 20260510132002 | 65 | 270 | 3.0 | 6.0 | 0.00 | 0.00 | 0.00 | 63 | 1016.8 |
| 20260510131506 | 65 | 247 | 3.0 | 5.0 | 0.00 | 0.00 | 0.00 | 66 | 1016.7 |
| 20260510131001 | 64 | 278 | 3.0 | 5.0 | 0.00 | 0.00 | 0.00 | 67 | 1016.7 |
| 20260510130521 | 63 | 270 | 4.0 | 6.0 | 0.00 | 0.00 | 0.00 | 70 | 1016.7 |
| 20260510130020 | 62 | 247 | 3.0 | 6.0 | 0.00 | 0.00 | 0.00 | 71 | 1016.8 |
| 20260510125500 | 61 | 226 | 2.0 | 3.0 | 0.00 | 0.00 | 0.00 | 74 | 1016.7 |
| 20260510125019 | 60 | 247 | 4.0 | 7.0 | 0.00 | 0.00 | 0.00 | 75 | 1016.8 |
| 20260510124459 | 60 | 274 | 4.0 | 5.0 | 0.00 | 0.00 | 0.00 | 76 | 1016.8 |
| 20260510123959 | 60 | 272 | 3.0 | 5.0 | 0.00 | 0.00 | 0.00 | 76 | 1016.8 |
| 20260510123458 | 60 | 260 | 2.0 | 4.0 | 0.00 | 0.00 | 0.00 | 77 | 1016.8 |
| 20260510122958 | 59 | 239 | 2.0 | 4.0 | 0.00 | 0.00 | 0.00 | 79 | 1016.7 |
| 20260510122457 | 58 | 232 | 1.0 | 3.0 | 0.00 | 0.00 | 0.00 | 79 | 1016.6 |
| 20260510121957 | 58 | 242 | 2.0 | 3.0 | 0.00 | 0.00 | 0.00 | 80 | 1016.6 |
| 20260510121457 | 57 | 206 | 3.0 | 5.0 | 0.00 | 0.00 | 0.00 | 81 | 1016.5 |
| 20260510120956 | 56 | 239 | 2.0 | 3.0 | 0.00 | 0.00 | 0.00 | 83 | 1016.5 |
| 20260510120456 | 56 | 224 | 3.0 | 4.0 | 0.00 | 0.00 | 0.00 | 84 | 1016.5 |
| 20260510115956 | 55 | 229 | 4.0 | 5.0 | 0.00 | 0.00 | 0.00 | 85 | 1016.5 |
| 20260510115455 | 54 | 208 | 4.0 | 5.0 | 0.00 | 0.00 | 0.00 | 87 | 1016.4 |
| 20260510115002 | 54 | 228 | 2.0 | 3.0 | 0.00 | 0.00 | 0.00 | 88 | 1016.5 |
| 20260510114455 | 53 | 242 | 2.0 | 3.0 | 0.00 | 0.00 | 0.00 | 90 | 1016.6 |
| 20260510113954 | 52 | 205 | 1.0 | 3.0 | 0.00 | 0.00 | 0.00 | 91 | 1016.5 |
| 20260510113454 | 51 | 233 | 2.0 | 4.0 | 0.00 | 0.00 | 0.00 | 93 | 1016.5 |
| 20260510112953 | 51 | 218 | 2.0 | 3.0 | 0.00 | 0.00 | 0.00 | 94 | 1016.4 |
| 20260510112453 | 50 | 194 | 1.0 | 2.0 | 0.00 | 0.00 | 0.00 | 95 | 1016.3 |
| 20260510111953 | 50 | 193 | 2.0 | 2.0 | 0.00 | 0.00 | 0.00 | 96 | 1016.3 |
| 20260510111453 | 49 | 223 | 2.0 | 3.0 | 0.00 | 0.00 | 0.00 | 97 | 1016.3 |
| 20260510110952 | 49 | 197 | 2.0 | 2.0 | 0.00 | 0.00 | 0.00 | 97 | 1016.2 |
| 20260510110459 | 49 | 228 | 1.0 | 2.0 | 0.00 | 0.00 | 0.00 | 98 | 1016.2 |
| 20260510105951 | 49 | 230 | 2.0 | 2.0 | 0.00 | 0.00 | 0.00 | 98 | 1016.1 |
| 20260510105451 | 48 | 215 | 2.0 | 2.0 | 0.00 | 0.00 | 0.00 | 99 | 1015.8 |
| 20260510104950 | 48 | 214 | 3.0 | 3.0 | 0.00 | 0.00 | 0.00 | 99 | 1015.7 |
| 20260510104450 | 48 | 291 | 1.0 | 2.0 | 0.00 | 0.00 | 0.00 | 99 | 1015.7 |
| 20260510103950 | 47 | 245 | 1.0 | 2.0 | 0.00 | 0.00 | 0.00 | 99 | 1015.6 |
| 20260510103449 | 47 | 277 | 1.0 | 2.0 | 0.00 | 0.00 | 0.00 | 99 | 1015.5 |
| 20260510103006 | 47 | 221 | 1.0 | 1.0 | 0.00 | 0.00 | 0.00 | 99 | 1015.4 |
| 20260510102449 | 47 | 250 | 1.0 | 2.0 | 0.00 | 0.00 | 0.00 | 99 | 1015.5 |
| 20260510101948 | 47 | 306 | 1.0 | 1.0 | 0.00 | 0.00 | 0.00 | 99 | 1015.4 |
| 20260510101448 | 47 | 283 | 1.0 | 1.0 | 0.00 | 0.00 | 0.00 | 99 | 1015.4 |
| 20260510100948 | 46 | 300 | 1.0 | 2.0 | 0.00 | 0.00 | 0.00 | 99 | 1015.4 |
| 20260510100447 | 46 | 321 | 1.0 | 1.0 | 0.00 | 0.00 | 0.00 | 99 | 1015.4 |
| 20260510095947 | 46 | 259 | 1.0 | 2.0 | 0.00 | 0.00 | 0.00 | 99 | 1015.3 |
| 20260510095447 | 45 | 275 | 1.0 | 2.0 | 0.00 | 0.00 | 0.00 | 99 | 1015.3 |
| 20260510094956 | 44 | 275 | 1.0 | 1.0 | 0.00 | 0.00 | 0.00 | 99 | 1015.4 |
| 20260510094446 | 44 | 333 | 0.0 | 0.0 | 0.00 | 0.00 | 0.00 | 99 | 1015.3 |
| 20260510093945 | 44 | 287 | 2.0 | 2.0 | 0.00 | 0.00 | 0.00 | 99 | 1015.2 |
| 20260510093445 | 44 | 222 | 0.0 | 1.0 | 0.00 | 0.00 | 0.00 | 99 | 1015.3 |
| 20260510092945 | 44 | 0 | 0.0 | 0.0 | 0.00 | 0.00 | 0.00 | 99 | 1015.3 |
| 20260510092444 | 44 | 236 | 0.0 | 1.0 | 0.00 | 0.00 | 0.00 | 99 | 1015.3 |
| 20260510091944 | 45 | 0 | 0.0 | 0.0 | 0.00 | 0.00 | 0.00 | 99 | 1015.2 |
| 20260510091447 | 45 | 0 | 0.0 | 0.0 | 0.00 | 0.00 | 0.00 | 99 | 1015.1 |
| 20260510090943 | 45 | 278 | 0.0 | 1.0 | 0.00 | 0.00 | 0.00 | 99 | 1015.1 |
| 20260510090503 | 45 | 245 | 2.0 | 2.0 | 0.00 | 0.00 | 0.00 | 99 | 1015.0 |
| 20260510085942 | 45 | 206 | 1.0 | 2.0 | 0.00 | 0.00 | 0.00 | 99 | 1014.9 |
| 20260510085442 | 45 | 289 | 1.0 | 2.0 | 0.00 | 0.00 | 0.00 | 99 | 1014.9 |
| 20260510084941 | 45 | 299 | 0.0 | 2.0 | 0.00 | 0.00 | 0.00 | 99 | 1014.9 |
| 20260510084441 | 45 | 26 | 1.0 | 2.0 | 0.00 | 0.00 | 0.00 | 99 | 1014.8 |
| 20260510083941 | 45 | 248 | 0.0 | 2.0 | 0.00 | 0.00 | 0.00 | 99 | 1014.9 |
| 20260510083500 | 46 | 203 | 1.0 | 1.0 | 0.00 | 0.00 | 0.00 | 99 | 1014.8 |
| 20260510082941 | 46 | 321 | 0.0 | 0.0 | 0.00 | 0.00 | 0.00 | 99 | 1014.7 |
| 20260510082459 | 46 | 216 | 0.0 | 0.0 | 0.00 | 0.00 | 0.00 | 99 | 1014.8 |
| 20260510081939 | 46 | 0 | 0.0 | 0.0 | 0.00 | 0.00 | 0.00 | 99 | 1014.7 |
| 20260510081439 | 46 | 339 | 0.0 | 0.0 | 0.00 | 0.00 | 0.00 | 99 | 1014.7 |
| 20260510080938 | 46 | 337 | 0.0 | 1.0 | 0.00 | 0.00 | 0.00 | 99 | 1014.6 |
| 20260510080438 | 46 | 0 | 0.0 | 0.0 | 0.00 | 0.00 | 0.00 | 99 | 1014.7 |
| 20260510075937 | 46 | 0 | 0.0 | 0.0 | 0.00 | 0.00 | 0.00 | 99 | 1014.7 |
| 20260510075437 | 46 | 217 | 0.0 | 0.0 | 0.00 | 0.00 | 0.00 | 99 | 1014.7 |
| 20260510074937 | 46 | 251 | 0.0 | 0.0 | 0.00 | 0.00 | 0.00 | 100 | 1014.6 |
| 20260510074436 | 47 | 282 | 0.0 | 0.0 | 0.00 | 0.00 | 0.00 | 100 | 1014.6 |
| 20260510073936 | 47 | 13 | 0.0 | 1.0 | 0.00 | 0.00 | 0.00 | 99 | 1014.5 |
| 20260510073436 | 47 | 322 | 0.0 | 1.0 | 0.00 | 0.00 | 0.00 | 99 | 1014.5 |
| 20260510072935 | 46 | 2 | 0.0 | 1.0 | 0.00 | 0.00 | 0.00 | 99 | 1014.4 |
| 20260510072435 | 46 | 339 | 0.0 | 1.0 | 0.00 | 0.00 | 0.00 | 98 | 1014.4 |
| 20260510071934 | 46 | 321 | 0.0 | 0.0 | 0.00 | 0.00 | 0.00 | 97 | 1014.5 |
| 20260510071434 | 47 | 0 | 0.0 | 0.0 | 0.00 | 0.00 | 0.00 | 96 | 1014.5 |
| 20260510070934 | 47 | 0 | 0.0 | 0.0 | 0.00 | 0.00 | 0.00 | 95 | 1014.4 |
| 20260510070433 | 48 | 2 | 0.0 | 1.0 | 0.00 | 0.00 | 0.00 | 95 | 1014.3 |
| 20260510065933 | 49 | 104 | 0.0 | 0.0 | 0.00 | 0.00 | 0.00 | 95 | 1014.3 |
| 20260510065433 | 49 | 0 | 0.0 | 0.0 | 0.00 | 0.00 | 0.00 | 94 | 1014.3 |
| 20260510064932 | 49 | 315 | 0.0 | 1.0 | 0.00 | 0.00 | 0.00 | 93 | 1014.1 |
| 20260510064432 | 49 | 311 | 0.0 | 1.0 | 0.00 | 0.00 | 0.00 | 94 | 1014.3 |
| 20260510063932 | 49 | 324 | 1.0 | 2.0 | 0.00 | 0.00 | 0.00 | 92 | 1014.3 |
| 20260510063431 | 49 | 260 | 0.0 | 2.0 | 0.00 | 0.00 | 0.00 | 93 | 1014.1 |
| 20260510062931 | 48 | 271 | 1.0 | 2.0 | 0.00 | 0.00 | 0.00 | 96 | 1014.1 |
| 20260510062431 | 48 | 0 | 0.0 | 0.0 | 0.00 | 0.00 | 0.00 | 96 | 1014.3 |
| 20260510061930 | 48 | 0 | 0.0 | 0.0 | 0.00 | 0.00 | 0.00 | 96 | 1014.4 |
| 20260510061430 | 48 | 0 | 0.0 | 0.0 | 0.00 | 0.00 | 0.00 | 94 | 1014.4 |
| 20260510060930 | 49 | 0 | 0.0 | 0.0 | 0.00 | 0.00 | 0.00 | 92 | 1014.5 |
| 20260510060429 | 49 | 0 | 0.0 | 0.0 | 0.00 | 0.00 | 0.00 | 92 | 1014.5 |
| 20260510055929 | 49 | 0 | 0.0 | 0.0 | 0.00 | 0.00 | 0.00 | 91 | 1014.5 |
| 20260510055429 | 49 | 315 | 1.0 | 1.0 | 0.00 | 0.00 | 0.00 | 90 | 1014.4 |
| 20260510054928 | 50 | 280 | 1.0 | 1.0 | 0.00 | 0.00 | 0.00 | 90 | 1014.4 |
| 20260510054428 | 49 | 196 | 2.0 | 3.0 | 0.00 | 0.00 | 0.00 | 91 | 1014.3 |
| 20260510053928 | 49 | 184 | 1.0 | 2.0 | 0.00 | 0.00 | 0.00 | 92 | 1014.4 |
| 20260510053427 | 49 | 0 | 0.0 | 0.0 | 0.00 | 0.00 | 0.00 | 91 | 1014.5 |
| 20260510052927 | 50 | 0 | 0.0 | 0.0 | 0.00 | 0.00 | 0.00 | 90 | 1014.5 |
| 20260510052447 | 50 | 19 | 0.0 | 1.0 | 0.00 | 0.00 | 0.00 | 90 | 1014.4 |
| 20260510051926 | 51 | 0 | 0.0 | 0.0 | 0.00 | 0.00 | 0.00 | 88 | 1014.4 |
| 20260510051426 | 51 | 345 | 0.0 | 0.0 | 0.00 | 0.00 | 0.00 | 87 | 1014.5 |
| 20260510050926 | 52 | 271 | 0.0 | 0.0 | 0.00 | 0.00 | 0.00 | 85 | 1014.5 |
| 20260510050425 | 52 | 0 | 0.0 | 0.0 | 0.00 | 0.00 | 0.00 | 85 | 1014.4 |
| 20260510045925 | 52 | 272 | 0.0 | 2.0 | 0.00 | 0.00 | 0.00 | 85 | 1014.4 |
| 20260510045424 | 52 | 293 | 1.0 | 2.0 | 0.00 | 0.00 | 0.00 | 86 | 1014.5 |
| 20260510044924 | 52 | 222 | 2.0 | 2.0 | 0.00 | 0.00 | 0.00 | 85 | 1014.4 |
| 20260510044424 | 52 | 218 | 1.0 | 2.0 | 0.00 | 0.00 | 0.00 | 85 | 1014.4 |
| 20260510043923 | 52 | 214 | 1.0 | 1.0 | 0.00 | 0.00 | 0.00 | 84 | 1014.4 |
| 20260510043423 | 52 | 278 | 1.0 | 2.0 | 0.00 | 0.00 | 0.00 | 84 | 1014.4 |
| 20260510042923 | 52 | 245 | 1.0 | 2.0 | 0.00 | 0.00 | 0.00 | 85 | 1014.4 |
| 20260510042423 | 52 | 225 | 0.0 | 2.0 | 0.00 | 0.00 | 0.00 | 85 | 1014.5 |
| 20260510041922 | 52 | 0 | 0.0 | 0.0 | 0.00 | 0.00 | 0.00 | 84 | 1014.5 |
| 20260510041422 | 53 | 0 | 0.0 | 0.0 | 0.00 | 0.00 | 0.00 | 83 | 1014.5 |
| 20260510040921 | 53 | 0 | 0.0 | 0.0 | 0.00 | 0.00 | 0.00 | 83 | 1014.5 |
| 20260510040421 | 53 | 285 | 1.0 | 1.0 | 0.00 | 0.00 | 0.00 | 83 | 1014.5 |
| 20260510035920 | 53 | 234 | 0.0 | 0.0 | 0.00 | 0.00 | 0.00 | 82 | 1014.5 |
| 20260510035420 | 54 | 309 | 0.0 | 1.0 | 0.00 | 0.00 | 0.00 | 80 | 1014.4 |
| 20260510034920 | 54 | 211 | 1.0 | 2.0 | 0.00 | 0.00 | 0.00 | 80 | 1014.3 |
| 20260510034419 | 54 | 204 | 0.0 | 1.0 | 0.00 | 0.00 | 0.00 | 81 | 1014.4 |
| 20260510033919 | 54 | 314 | 0.0 | 1.0 | 0.00 | 0.00 | 0.00 | 80 | 1014.4 |
| 20260510033419 | 55 | 241 | 0.0 | 1.0 | 0.00 | 0.00 | 0.00 | 78 | 1014.4 |
| 20260510032919 | 56 | 214 | 1.0 | 2.0 | 0.00 | 0.00 | 0.00 | 77 | 1014.3 |
| 20260510032418 | 58 | 200 | 2.0 | 3.0 | 0.00 | 0.00 | 0.00 | 75 | 1014.3 |
| 20260510031918 | 59 | 210 | 2.0 | 3.0 | 0.00 | 0.00 | 0.00 | 67 | 1013.9 |
| 20260510031423 | 58 | 304 | 2.0 | 3.0 | 0.00 | 0.00 | 0.00 | 67 | 1013.8 |
| 20260510030917 | 56 | 305 | 2.0 | 2.0 | 0.00 | 0.00 | 0.00 | 73 | 1014.0 |
| 20260510030424 | 56 | 305 | 2.0 | 2.0 | 0.00 | 0.00 | 0.00 | 75 | 1014.0 |
| 20260510025916 | 56 | 273 | 1.0 | 2.0 | 0.00 | 0.00 | 0.00 | 75 | 1014.0 |
| 20260510025416 | 57 | 206 | 2.0 | 3.0 | 0.00 | 0.00 | 0.00 | 72 | 1013.9 |
| 20260510024916 | 57 | 213 | 2.0 | 2.0 | 0.00 | 0.00 | 0.00 | 72 | 1013.9 |
| 20260510024415 | 57 | 308 | 1.0 | 2.0 | 0.00 | 0.00 | 0.00 | 72 | 1013.8 |
| 20260510023915 | 58 | 252 | 2.0 | 4.0 | 0.00 | 0.00 | 0.00 | 72 | 1013.9 |
| 20260510023415 | 60 | 202 | 4.0 | 5.0 | 0.00 | 0.00 | 0.00 | 69 | 1013.8 |
| 20260510022914 | 60 | 256 | 2.0 | 4.0 | 0.00 | 0.00 | 0.00 | 65 | 1013.7 |
| 20260510022414 | 59 | 289 | 2.0 | 2.0 | 0.00 | 0.00 | 0.00 | 65 | 1013.6 |
| 20260510021914 | 57 | 274 | 1.0 | 3.0 | 0.00 | 0.00 | 0.00 | 69 | 1013.7 |
| 20260510021413 | 56 | 285 | 1.0 | 2.0 | 0.00 | 0.00 | 0.00 | 72 | 1013.7 |
| 20260510020913 | 56 | 297 | 0.0 | 1.0 | 0.00 | 0.00 | 0.00 | 73 | 1013.8 |
| 20260510020412 | 57 | 301 | 0.0 | 1.0 | 0.00 | 0.00 | 0.00 | 72 | 1013.7 |
| 20260510015912 | 57 | 221 | 0.0 | 1.0 | 0.00 | 0.00 | 0.00 | 72 | 1013.6 |
| 20260510015413 | 58 | 193 | 0.0 | 2.0 | 0.00 | 0.00 | 0.00 | 71 | 1013.5 |
| 20260510014921 | 58 | 182 | 1.0 | 2.0 | 0.00 | 0.00 | 0.00 | 69 | 1013.5 |
| 20260510014411 | 59 | 205 | 1.0 | 2.0 | 0.00 | 0.00 | 0.00 | 69 | 1013.5 |
| 20260510013910 | 59 | 235 | 0.0 | 0.0 | 0.00 | 0.00 | 0.00 | 67 | 1013.3 |
| 20260510013410 | 60 | 194 | 0.0 | 2.0 | 0.00 | 0.00 | 0.00 | 66 | 1013.2 |
| 20260510012909 | 61 | 221 | 0.0 | 0.0 | 0.00 | 0.00 | 0.00 | 64 | 1013.1 |
| 20260510012409 | 61 | 250 | 1.0 | 2.0 | 0.00 | 0.00 | 0.00 | 63 | 1013.0 |
| 20260510011908 | 62 | 240 | 1.0 | 2.0 | 0.00 | 0.00 | 0.00 | 61 | 1012.8 |
| 20260510011428 | 62 | 250 | 1.0 | 2.0 | 0.00 | 0.00 | 0.00 | 60 | 1012.7 |
| 20260510010908 | 63 | 294 | 1.0 | 2.0 | 0.00 | 0.00 | 0.00 | 59 | 1012.5 |
| 20260510010407 | 63 | 314 | 2.0 | 2.0 | 0.00 | 0.00 | 0.00 | 58 | 1012.4 |
| 20260510005907 | 63 | 298 | 2.0 | 3.0 | 0.00 | 0.00 | 0.00 | 58 | 1012.4 |
| 20260510005407 | 63 | 281 | 0.0 | 1.0 | 0.00 | 0.00 | 0.00 | 58 | 1012.4 |
| 20260510004911 | 64 | 300 | 1.0 | 2.0 | 0.00 | 0.00 | 0.00 | 56 | 1012.3 |
| 20260510004406 | 64 | 305 | 1.0 | 3.0 | 0.00 | 0.00 | 0.00 | 56 | 1012.3 |
| 20260510003905 | 64 | 275 | 2.0 | 3.0 | 0.00 | 0.00 | 0.00 | 55 | 1012.3 |
| 20260510003405 | 65 | 242 | 1.0 | 3.0 | 0.00 | 0.00 | 0.00 | 54 | 1012.3 |
| 20260510002905 | 65 | 270 | 1.0 | 2.0 | 0.00 | 0.00 | 0.00 | 54 | 1012.2 |
| 20260510002404 | 65 | 322 | 2.0 | 3.0 | 0.00 | 0.00 | 0.00 | 53 | 1012.1 |
| 20260510001904 | 65 | 288 | 3.0 | 4.0 | 0.00 | 0.00 | 0.00 | 52 | 1012.2 |
| 20260510001404 | 66 | 316 | 3.0 | 5.0 | 0.00 | 0.00 | 0.00 | 52 | 1012.2 |
| 20260510000903 | 66 | 286 | 3.0 | 4.0 | 0.00 | 0.00 | 0.00 | 52 | 1012.2 |
| 20260510000403 | 66 | 286 | 3.0 | 5.0 | 0.00 | 0.00 | 0.00 | 51 | 1012.1 |
| 20260509235902 | 67 | 236 | 2.0 | 3.0 | 0.00 | 0.00 | 0.00 | 52 | 1012.1 |
| 20260509235406 | 67 | 286 | 1.0 | 2.0 | 0.00 | 0.00 | 0.00 | 52 | 1012.0 |
| 20260509234900 | 67 | 257 | 2.0 | 3.0 | 0.00 | 0.00 | 0.00 | 53 | 1011.9 |
| 20260509234400 | 68 | 264 | 2.0 | 4.0 | 0.00 | 0.00 | 0.00 | 52 | 1011.9 |
| 20260509233900 | 68 | 271 | 2.0 | 3.0 | 0.00 | 0.00 | 0.00 | 51 | 1011.8 |
| 20260509233359 | 69 | 268 | 2.0 | 4.0 | 0.00 | 0.00 | 0.00 | 51 | 1011.8 |
| 20260509232859 | 69 | 298 | 4.0 | 6.0 | 0.00 | 0.00 | 0.00 | 50 | 1011.6 |
| 20260509232358 | 70 | 280 | 4.0 | 6.0 | 0.00 | 0.00 | 0.00 | 49 | 1011.6 |
| 20260509231858 | 70 | 291 | 2.0 | 5.0 | 0.00 | 0.00 | 0.00 | 49 | 1011.5 |
| 20260509231358 | 70 | 21 | 1.0 | 3.0 | 0.00 | 0.00 | 0.00 | 50 | 1011.5 |
| 20260509230857 | 70 | 245 | 2.0 | 5.0 | 0.00 | 0.00 | 0.00 | 50 | 1011.5 |
| 20260509230357 | 70 | 280 | 2.0 | 3.0 | 0.00 | 0.00 | 0.00 | 49 | 1011.5 |
| 20260509225857 | 70 | 329 | 1.0 | 3.0 | 0.00 | 0.00 | 0.00 | 49 | 1011.5 |
| 20260509225417 | 71 | 293 | 5.0 | 8.0 | 0.00 | 0.00 | 0.00 | 48 | 1011.3 |
| 20260509224856 | 71 | 277 | 5.0 | 9.0 | 0.00 | 0.00 | 0.00 | 48 | 1011.3 |
| 20260509224356 | 71 | 320 | 3.0 | 5.0 | 0.00 | 0.00 | 0.00 | 49 | 1011.3 |
| 20260509223857 | 71 | 307 | 4.0 | 9.0 | 0.00 | 0.00 | 0.00 | 48 | 1011.3 |
| 20260509223355 | 72 | 296 | 5.0 | 9.0 | 0.00 | 0.00 | 0.00 | 47 | 1011.3 |
| 20260509222855 | 71 | 280 | 2.0 | 4.0 | 0.00 | 0.00 | 0.00 | 48 | 1011.3 |
| 20260509222355 | 72 | 280 | 4.0 | 8.0 | 0.00 | 0.00 | 0.00 | 48 | 1011.3 |
| 20260509221854 | 72 | 262 | 3.0 | 5.0 | 0.00 | 0.00 | 0.00 | 47 | 1011.4 |
| 20260509221354 | 71 | 257 | 6.0 | 9.0 | 0.00 | 0.00 | 0.00 | 47 | 1011.3 |
| 20260509220853 | 71 | 285 | 3.0 | 4.0 | 0.00 | 0.00 | 0.00 | 47 | 1011.3 |
| 20260509220353 | 70 | 266 | 3.0 | 6.0 | 0.00 | 0.00 | 0.00 | 49 | 1011.3 |
| 20260509215853 | 70 | 313 | 4.0 | 7.0 | 0.00 | 0.00 | 0.00 | 49 | 1011.4 |
| 20260509215352 | 70 | 303 | 5.0 | 10.0 | 0.00 | 0.00 | 0.00 | 48 | 1011.5 |
| 20260509214852 | 71 | 302 | 4.0 | 7.0 | 0.00 | 0.00 | 0.00 | 48 | 1011.5 |
| 20260509214412 | 72 | 284 | 5.0 | 10.0 | 0.00 | 0.00 | 0.00 | 47 | 1011.2 |
| 20260509213851 | 72 | 287 | 5.0 | 9.0 | 0.00 | 0.00 | 0.00 | 46 | 1011.2 |
| 20260509213351 | 72 | 245 | 3.0 | 5.0 | 0.00 | 0.00 | 0.00 | 46 | 1011.1 |
| 20260509212851 | 72 | 282 | 3.0 | 6.0 | 0.00 | 0.00 | 0.00 | 47 | 1011.1 |
| 20260509212350 | 72 | 246 | 6.0 | 9.0 | 0.00 | 0.00 | 0.00 | 46 | 1011.0 |
| 20260509211850 | 72 | 292 | 6.0 | 9.0 | 0.00 | 0.00 | 0.00 | 46 | 1010.8 |
| 20260509211350 | 71 | 299 | 2.0 | 4.0 | 0.00 | 0.00 | 0.00 | 49 | 1010.8 |
| 20260509210849 | 70 | 301 | 2.0 | 4.0 | 0.00 | 0.00 | 0.00 | 49 | 1010.7 |
| 20260509210349 | 70 | 311 | 4.0 | 7.0 | 0.00 | 0.00 | 0.00 | 49 | 1011.1 |
| 20260509205848 | 71 | 302 | 4.0 | 8.0 | 0.00 | 0.00 | 0.00 | 47 | 1011.2 |
| 20260509205348 | 72 | 270 | 6.0 | 9.0 | 0.00 | 0.00 | 0.00 | 46 | 1010.8 |
| 20260509204848 | 71 | 276 | 4.0 | 9.0 | 0.00 | 0.00 | 0.00 | 48 | 1010.7 |
| 20260509204348 | 71 | 237 | 5.0 | 10.0 | 0.00 | 0.00 | 0.00 | 48 | 1010.8 |
| 20260509203847 | 70 | 255 | 6.0 | 9.0 | 0.00 | 0.00 | 0.00 | 48 | 1010.7 |
| 20260509203347 | 71 | 281 | 4.0 | 7.0 | 0.00 | 0.00 | 0.00 | 48 | 1011.2 |
| 20260509202847 | 71 | 299 | 6.0 | 9.0 | 0.00 | 0.00 | 0.00 | 47 | 1010.7 |
| 20260509202346 | 71 | 283 | 3.0 | 6.0 | 0.00 | 0.00 | 0.00 | 48 | 1010.8 |
| 20260509201846 | 70 | 264 | 4.0 | 5.0 | 0.00 | 0.00 | 0.00 | 49 | 1010.6 |
| 20260509201346 | 71 | 257 | 7.0 | 10.0 | 0.00 | 0.00 | 0.00 | 48 | 1011.0 |
| 20260509200845 | 72 | 284 | 4.0 | 9.0 | 0.00 | 0.00 | 0.00 | 48 | 1011.0 |
| 20260509200345 | 72 | 269 | 6.0 | 10.0 | 0.00 | 0.00 | 0.00 | 46 | 1010.8 |
| 20260509195845 | 72 | 285 | 5.0 | 8.0 | 0.00 | 0.00 | 0.00 | 47 | 1010.6 |
| 20260509195354 | 72 | 287 | 5.0 | 8.0 | 0.00 | 0.00 | 0.00 | 48 | 1010.5 |
| 20260509194844 | 72 | 245 | 3.0 | 9.0 | 0.00 | 0.00 | 0.00 | 47 | 1010.5 |
| 20260509194344 | 71 | 254 | 3.0 | 7.0 | 0.00 | 0.00 | 0.00 | 48 | 1010.4 |
| 20260509193843 | 71 | 257 | 6.0 | 9.0 | 0.00 | 0.00 | 0.00 | 48 | 1010.5 |
| 20260509193343 | 71 | 326 | 5.0 | 9.0 | 0.00 | 0.00 | 0.00 | 47 | 1010.8 |
| 20260509192843 | 70 | 203 | 5.0 | 8.0 | 0.00 | 0.00 | 0.00 | 47 | 1010.5 |
| 20260509192342 | 71 | 215 | 5.0 | 8.0 | 0.00 | 0.00 | 0.00 | 47 | 1010.6 |
| 20260509191842 | 71 | 266 | 5.0 | 7.0 | 0.00 | 0.00 | 0.00 | 46 | 1010.8 |
| 20260509191342 | 72 | 205 | 8.0 | 12.0 | 0.00 | 0.00 | 0.00 | 45 | 1010.4 |
| 20260509190842 | 72 | 220 | 6.0 | 11.0 | 0.00 | 0.00 | 0.00 | 44 | 1010.4 |
| 20260509190341 | 71 | 249 | 5.0 | 12.0 | 0.00 | 0.00 | 0.00 | 48 | 1010.5 |
| 20260509185841 | 71 | 231 | 6.0 | 9.0 | 0.00 | 0.00 | 0.00 | 46 | 1010.8 |
| 20260509185341 | 71 | 269 | 5.0 | 9.0 | 0.00 | 0.00 | 0.00 | 47 | 1010.5 |
| 20260509184841 | 70 | 304 | 3.0 | 6.0 | 0.00 | 0.00 | 0.00 | 48 | 1010.5 |
| 20260509184340 | 70 | 273 | 5.0 | 8.0 | 0.00 | 0.00 | 0.00 | 48 | 1010.7 |
| 20260509183840 | 70 | 273 | 6.0 | 10.0 | 0.00 | 0.00 | 0.00 | 47 | 1010.7 |
| 20260509183339 | 70 | 225 | 5.0 | 11.0 | 0.00 | 0.00 | 0.00 | 47 | 1011.0 |
| 20260509182839 | 70 | 215 | 8.0 | 14.0 | 0.00 | 0.00 | 0.00 | 47 | 1011.0 |
| 20260509182343 | 71 | 240 | 7.0 | 12.0 | 0.00 | 0.00 | 0.00 | 47 | 1010.7 |
| 20260509181838 | 70 | 288 | 4.0 | 7.0 | 0.00 | 0.00 | 0.00 | 47 | 1010.6 |
| 20260509181338 | 69 | 296 | 5.0 | 8.0 | 0.00 | 0.00 | 0.00 | 46 | 1010.6 |
| 20260509180838 | 69 | 212 | 4.0 | 6.0 | 0.00 | 0.00 | 0.00 | 49 | 1011.2 |
| 20260509180337 | 69 | 227 | 6.0 | 9.0 | 0.00 | 0.00 | 0.00 | 49 | 1011.2 |
| 20260509175837 | 69 | 220 | 5.0 | 9.0 | 0.00 | 0.00 | 0.00 | 50 | 1011.0 |
| 20260509175337 | 69 | 273 | 6.0 | 9.0 | 0.00 | 0.00 | 0.00 | 49 | 1011.4 |
| 20260509174836 | 70 | 260 | 4.0 | 6.0 | 0.00 | 0.00 | 0.00 | 50 | 1011.1 |
| 20260509174336 | 69 | 313 | 4.0 | 8.0 | 0.00 | 0.00 | 0.00 | 49 | 1011.1 |
| 20260509173840 | 69 | 277 | 7.0 | 11.0 | 0.00 | 0.00 | 0.00 | 48 | 1011.3 |
| 20260509173335 | 69 | 225 | 8.0 | 10.0 | 0.00 | 0.00 | 0.00 | 50 | 1011.5 |
| 20260509172852 | 69 | 261 | 6.0 | 9.0 | 0.00 | 0.00 | 0.00 | 49 | 1011.1 |
| 20260509172335 | 68 | 289 | 4.0 | 9.0 | 0.00 | 0.00 | 0.00 | 51 | 1011.3 |
| 20260509171834 | 68 | 277 | 4.0 | 7.0 | 0.00 | 0.00 | 0.00 | 52 | 1011.7 |
| 20260509171334 | 69 | 318 | 3.0 | 5.0 | 0.00 | 0.00 | 0.00 | 53 | 1011.6 |
| 20260509170834 | 69 | 332 | 2.0 | 6.0 | 0.00 | 0.00 | 0.00 | 53 | 1011.4 |
| 20260509170333 | 70 | 266 | 5.0 | 9.0 | 0.00 | 0.00 | 0.00 | 51 | 1011.3 |
| 20260509165833 | 69 | 251 | 6.0 | 8.0 | 0.00 | 0.00 | 0.00 | 47 | 1011.3 |
| 20260509165333 | 69 | 202 | 7.0 | 11.0 | 0.00 | 0.00 | 0.00 | 48 | 1011.3 |
| 20260509164835 | 67 | 271 | 6.0 | 9.0 | 0.00 | 0.00 | 0.00 | 50 | 1011.6 |
| 20260509164332 | 68 | 296 | 5.0 | 7.0 | 0.00 | 0.00 | 0.00 | 52 | 1011.6 |
| 20260509163832 | 68 | 244 | 4.0 | 6.0 | 0.00 | 0.00 | 0.00 | 51 | 1011.8 |
| 20260509163331 | 68 | 243 | 5.0 | 10.0 | 0.00 | 0.00 | 0.00 | 51 | 1011.7 |
| 20260509162831 | 67 | 239 | 8.0 | 17.0 | 0.00 | 0.00 | 0.00 | 53 | 1011.8 |
| 20260509162330 | 67 | 286 | 6.0 | 8.0 | 0.00 | 0.00 | 0.00 | 56 | 1012.3 |
| 20260509161830 | 67 | 240 | 7.0 | 9.0 | 0.00 | 0.00 | 0.00 | 55 | 1012.1 |
| 20260509161335 | 67 | 295 | 6.0 | 9.0 | 0.00 | 0.00 | 0.00 | 55 | 1012.0 |
| 20260509160829 | 66 | 246 | 4.0 | 7.0 | 0.00 | 0.00 | 0.00 | 57 | 1012.3 |
| 20260509160349 | 67 | 235 | 6.0 | 9.0 | 0.00 | 0.00 | 0.00 | 54 | 1012.1 |
| 20260509155829 | 67 | 231 | 6.0 | 12.0 | 0.00 | 0.00 | 0.00 | 57 | 1011.9 |
| 20260509155328 | 66 | 248 | 6.0 | 13.0 | 0.00 | 0.00 | 0.00 | 59 | 1011.8 |
| 20260509154828 | 67 | 229 | 5.0 | 8.0 | 0.00 | 0.00 | 0.00 | 57 | 1011.8 |
| 20260509154328 | 66 | 210 | 4.0 | 6.0 | 0.00 | 0.00 | 0.00 | 59 | 1011.8 |
| 20260509153827 | 66 | 215 | 6.0 | 9.0 | 0.00 | 0.00 | 0.00 | 60 | 1011.7 |
| 20260509153331 | 65 | 258 | 5.0 | 7.0 | 0.00 | 0.00 | 0.00 | 62 | 1011.6 |
| 20260509152826 | 65 | 234 | 5.0 | 7.0 | 0.00 | 0.00 | 0.00 | 61 | 1011.5 |
| 20260509152326 | 65 | 213 | 5.0 | 6.0 | 0.00 | 0.00 | 0.00 | 62 | 1011.5 |